TimeHST,TemperatureF,Dew PointF,Humidity,Sea Level PressureIn,VisibilityMPH,Wind Direction,Wind SpeedMPH,Gust SpeedMPH,PrecipitationIn,Events,Conditions,WindDirDegrees,DateUTC
12:56 AM,73.0,64.9,76,30.12,10.0,East,3.5,-,N/A,,Scattered Clouds,90,2013-05-15 10:56:00
1:56 AM,72.0,66.0,81,30.10,10.0,Calm,Calm,-,N/A,,Partly Cloudy,0,2013-05-15 11:56:00
2:56 AM,72.0,64.9,78,30.09,10.0,SE,3.5,-,N/A,,Mostly Cloudy,130,2013-05-15 12:56:00
3:56 AM,71.1,64.0,78,30.09,10.0,East,3.5,-,N/A,,Scattered Clouds,90,2013-05-15 13:56:00
4:56 AM,71.1,64.0,78,30.09,10.0,Calm,Calm,-,N/A,,Clear,0,2013-05-15 14:56:00
5:56 AM,70.0,63.0,78,30.10,10.0,ENE,4.6,-,N/A,,Clear,60,2013-05-15 15:56:00
6:56 AM,72.0,64.0,76,30.12,10.0,Calm,Calm,-,N/A,,Clear,0,2013-05-15 16:56:00
7:56 AM,78.1,66.0,66,30.13,10.0,WNW,3.5,-,N/A,,Clear,300,2013-05-15 17:56:00
8:56 AM,78.1,66.9,68,30.14,10.0,West,4.6,-,N/A,,Clear,260,2013-05-15 18:56:00
9:56 AM,80.1,66.9,64,30.14,10.0,West,9.2,-,N/A,,Clear,260,2013-05-15 19:56:00
10:56 AM,81.0,68.0,65,30.13,10.0,West,10.4,-,N/A,,Clear,280,2013-05-15 20:56:00
11:56 AM,82.0,66.9,60,30.12,10.0,WNW,6.9,-,N/A,,Clear,300,2013-05-15 21:56:00
12:56 PM,82.9,68.0,60,30.10,10.0,WSW,10.4,-,N/A,,Clear,250,2013-05-15 22:56:00
1:56 PM,82.9,69.1,63,30.10,10.0,West,11.5,-,N/A,,Clear,270,2013-05-15 23:56:00
2:56 PM,82.9,68.0,60,30.08,10.0,West,11.5,-,N/A,,Clear,280,2013-05-16 00:56:00
3:56 PM,82.9,68.0,60,30.08,10.0,WNW,9.2,-,N/A,,Partly Cloudy,290,2013-05-16 01:56:00
4:56 PM,82.0,68.0,62,30.08,10.0,WSW,5.8,-,N/A,,Mostly Cloudy,250,2013-05-16 02:56:00
5:56 PM,81.0,66.9,62,30.09,10.0,SW,6.9,-,N/A,,Scattered Clouds,220,2013-05-16 03:56:00
6:56 PM,80.1,69.1,69,30.10,10.0,WSW,9.2,-,N/A,,Scattered Clouds,240,2013-05-16 04:56:00
7:56 PM,80.1,68.0,67,30.12,10.0,WNW,8.1,-,N/A,,Clear,290,2013-05-16 05:56:00
8:56 PM,78.1,66.9,68,30.13,10.0,Calm,Calm,-,N/A,,Clear,0,2013-05-16 06:56:00
9:56 PM,75.9,66.9,74,30.15,10.0,SE,4.6,-,N/A,,Clear,130,2013-05-16 07:56:00
10:56 PM,75.0,66.0,73,30.16,10.0,ENE,3.5,-,N/A,,Clear,70,2013-05-16 08:56:00
11:56 PM,73.0,64.0,73,30.14,10.0,ENE,3.5,-,N/A,,Clear,60,2013-05-16 09:56:00